Find Starlink 5019

NORAD ID: 55407 Int'l Des: 2023-014 Owner: SPXS Country: US Constellation: starlink operational
LEOCIRCULAR

現在のビュー

3D地球を読み込み中...

About Starlink 5019

Starlink 5019 (NORAD 55407) is a starlink constellation satellite (v1.5) launched Jan 31, 2023 by SPXS of US. It operates in LEO, CIRCULAR orbit with a mass of 305.00 kg.

Starlink 5019について

説明を読み込み中...

次回通過

Passes for default location (London). Set your location on the main map for personalized predictions.

高度履歴

Loading altitude history...

軌道要素

1 55407U 23014S 26166.29560754 .00000760 00000-0 71500-4 0 9990
2 55407 69.9986 178.4428 0003685 268.3966 91.6771 14.98331595186673
Epoch: Jun 15, 2026 • Age: 7 hours

現在のステータス

高度 574.2 km
速度 7.57 km/s
衛星直下点 11.34°N, 124.11°W
打ち上げ日 Jan 31, 2023
運用期間 3.3 years
タイプ internet

技術仕様

分類 Payload
質量 305.00 kg
乾燥質量 290.00 kg
総質量 305.00 kg
長さ 0.20 m
直径 2.80 m
スパン 9.00 m
形状 Box + pan
製造者 SPXS
バスタイプ Starlink
フェーズステータス In Orbit
所有者/国 SPXS/US

Most Searched